Ciampino, Italy

1:42 PM CET on January 24, 2017 (GMT +0100)
Ciampino

Weather History for LIRA - October, 2012

Change the Weather History Date:

Saturday, October 27, 2012

  Actual Average Record
Temperature  
Mean Temperature 66 °F -  
Max Temperature 69 °F 62 °F 80 °F (2006)
Min Temperature 62 °F 45 °F 42 °F (1996)
Growing Degree Days 16 (Base 50)    
Moisture  
Dew Point 63 °F    
Average Humidity 89    
Maximum Humidity 94    
Minimum Humidity 73    
Precipitation  
Precipitation 0.00 in 0.17 in - ()
Sea Level Pressure  
Sea Level Pressure 29.36 in    
Wind  
Wind Speed 10 mph ()    
Max Wind Speed 21 mph    
Max Gust Speed 32 mph    
Visibility 5.8 miles    
Events Rain , Thunderstorm    
Averages and records for this station are not official NWS values.
T = Trace of Precipitation, MM = Missing Value Source: Averaged Metar Reports

Daily Weather History Graph

Daily Weather History Graph

Search for Another Location

Airport or City:

Trip Planner

Search our weather history database for the weather conditions in past years. The results will help you decide how hot, cold, wet, or windy it might be!

Date:

Astronomy

Oct. 27, 2012 Rise Set
Actual Time 7:36 AM CEST 6:10 PM CEST
Civil Twilight 7:07 AM CEST 6:38 PM CEST
Nautical Twilight 6:34 AM CEST 7:11 PM CEST
Astronomical Twilight 6:02 AM CEST 7:43 PM CEST
Moon 4:48 PM CEST (10/27) 5:13 AM CEST (10/27)
Length of Visible Light 11h 31m
Length of Day
10h 34m
Waxing Gibbous, 95% of the Moon is Illuminated
Oct 27
Waxing Gibbous
Oct 29
Full
Nov 7
Last Quarter
Nov 13
New
Nov 20
First Quarter

Hourly Weather History & Observations

Time (CEST) Temp. Dew Point Humidity Pressure Visibility Wind Dir Wind Speed Gust Speed Precip Events Conditions
12:15 AM 64.4 °F 62.6 °F 94% 29.47 in 4.3 mi South 16.1 mph - N/A Rain , Thunderstorm Light Thunderstorms and Rain
12:45 AM 66.2 °F 62.6 °F 88% 29.47 in 4.3 mi South 10.4 mph - N/A Rain , Thunderstorm Light Thunderstorms and Rain
1:15 AM 64.4 °F 62.6 °F 94% 29.47 in 5.0 mi South 6.9 mph - N/A Thunderstorm Thunderstorm
1:45 AM 64.4 °F 60.8 °F 88% 29.50 in 6.2 mi South 4.6 mph - N/A   Scattered Clouds
2:15 AM 64.4 °F 62.6 °F 94% 29.47 in 6.2 mi SSE 5.8 mph - N/A   Scattered Clouds
2:45 AM 64.4 °F 62.6 °F 94% 29.47 in 6.2 mi SSE 5.8 mph - N/A   Scattered Clouds
3:15 AM 64.4 °F 62.6 °F 94% 29.44 in 6.2 mi South 6.9 mph - N/A   Scattered Clouds
3:45 AM 66.2 °F 64.4 °F 94% 29.44 in 6.2 mi South 6.9 mph - N/A   Scattered Clouds
4:15 AM 66.2 °F 64.4 °F 94% 29.42 in 5.0 mi South 8.1 mph - N/A Thunderstorm Thunderstorm
4:45 AM 66.2 °F 64.4 °F 94% 29.42 in 5.0 mi South 9.2 mph - N/A Thunderstorm Thunderstorm
5:15 AM 66.2 °F 64.4 °F 94% 29.39 in 5.0 mi South 10.4 mph - N/A Thunderstorm Thunderstorm
5:45 AM 66.2 °F 64.4 °F 94% 29.39 in 5.6 mi South 11.5 mph - N/A Thunderstorm Thunderstorm
6:15 AM 66.2 °F 64.4 °F 94% 29.39 in 5.6 mi South 11.5 mph - N/A Thunderstorm Thunderstorm
6:45 AM 66.2 °F 64.4 °F 94% 29.39 in 6.2 mi South 11.5 mph - N/A Thunderstorm Scattered Clouds
7:15 AM 66.2 °F 64.4 °F 94% 29.39 in 6.2 mi South 8.1 mph - N/A   Mostly Cloudy
7:45 AM 66.2 °F 64.4 °F 94% 29.39 in 6.2 mi South 6.9 mph - N/A Rain Light Rain
8:15 AM 66.2 °F 62.6 °F 88% 29.39 in 5.0 mi South 9.2 mph - N/A Rain Light Rain
8:45 AM 66.2 °F 64.4 °F 94% 29.36 in 5.0 mi South 11.5 mph - N/A   Partly Cloudy
9:15 AM 68.0 °F 66.2 °F 94% 29.36 in 5.0 mi SSW 16.1 mph - N/A   Scattered Clouds
9:45 AM 68.0 °F 64.4 °F 88% 29.36 in 5.0 mi South 15.0 mph 26.5 mph N/A   Scattered Clouds
10:15 AM 68.0 °F 64.4 °F 88% 29.36 in 5.0 mi SSW 13.8 mph 25.3 mph N/A   Scattered Clouds
10:45 AM 68.0 °F 64.4 °F 88% 29.36 in 5.0 mi SW 15.0 mph 26.5 mph N/A   Scattered Clouds
11:15 AM 68.0 °F 64.4 °F 88% 29.36 in 6.2 mi SSW 16.1 mph 31.1 mph N/A   Scattered Clouds
11:45 AM 68.0 °F 62.6 °F 83% 29.36 in 6.2 mi SSW 16.1 mph - N/A   Scattered Clouds
12:15 PM 68.0 °F 62.6 °F 83% 29.36 in 6.2 mi SSW 10.4 mph - N/A   Scattered Clouds
12:45 PM 69.8 °F 62.6 °F 78% 29.36 in 6.2 mi SSW 16.1 mph 31.1 mph N/A   Scattered Clouds
1:15 PM 69.8 °F 60.8 °F 73% 29.33 in 6.2 mi SSW 20.7 mph 32.2 mph N/A   Scattered Clouds
1:45 PM 69.8 °F 60.8 °F 73% 29.33 in 6.2 mi SSW 16.1 mph 28.8 mph N/A   Scattered Clouds
2:15 PM 69.8 °F 60.8 °F 73% 29.33 in 6.2 mi SSW 17.3 mph 32.2 mph N/A   Scattered Clouds
2:45 PM 68.0 °F 62.6 °F 83% 29.33 in 6.2 mi SSW 15.0 mph 26.5 mph N/A   Scattered Clouds
3:15 PM 68.0 °F 62.6 °F 83% 29.33 in 6.2 mi SSW 13.8 mph - N/A   Scattered Clouds
3:45 PM 69.8 °F 64.4 °F 83% 29.33 in 6.2 mi SSW 17.3 mph - N/A   Scattered Clouds
4:15 PM 68.0 °F 64.4 °F 88% 29.30 in 6.2 mi SSW 16.1 mph - N/A   Scattered Clouds
4:45 PM 68.0 °F 64.4 °F 88% 29.30 in 6.2 mi South 13.8 mph - N/A   Scattered Clouds
5:15 PM 68.0 °F 62.6 °F 83% 29.30 in 6.2 mi South 11.5 mph - N/A   Scattered Clouds
5:45 PM 68.0 °F 64.4 °F 88% 29.30 in 6.2 mi South 10.4 mph - N/A   Scattered Clouds
6:15 PM 66.2 °F 62.6 °F 88% 29.30 in 6.2 mi South 9.2 mph - N/A   Scattered Clouds
6:45 PM 66.2 °F 62.6 °F 88% 29.30 in 6.2 mi South 8.1 mph - N/A   Scattered Clouds
7:15 PM 66.2 °F 62.6 °F 88% 29.30 in 6.2 mi South 9.2 mph - N/A   Scattered Clouds
7:45 PM 64.4 °F 62.6 °F 94% 29.30 in 6.2 mi South 10.4 mph - N/A Rain Rain
8:15 PM 64.4 °F 62.6 °F 94% 29.30 in 6.2 mi South 11.5 mph - N/A   Scattered Clouds
8:45 PM 64.4 °F 62.6 °F 94% 29.30 in 6.2 mi South 9.2 mph - N/A   Scattered Clouds
9:15 PM 64.4 °F 62.6 °F 94% 29.30 in 6.2 mi South 8.1 mph - N/A   Scattered Clouds
9:45 PM 64.4 °F 62.6 °F 94% 29.27 in 6.2 mi South 5.8 mph - N/A Thunderstorm Thunderstorm
10:15 PM 64.4 °F 60.8 °F 88% 29.27 in 6.2 mi South 9.2 mph 25.3 mph N/A Rain , Thunderstorm Light Thunderstorms and Rain
10:45 PM 62.6 °F 59.0 °F 88% 29.27 in 6.2 mi South 9.2 mph - N/A Rain , Thunderstorm Light Thunderstorms and Rain
11:15 PM 62.6 °F 59.0 °F 88% 29.30 in 6.2 mi SSW 8.1 mph - N/A Thunderstorm Thunderstorm
11:45 PM 62.6 °F 59.0 °F 88% 29.30 in 6.2 mi SSW 6.9 mph - N/A Thunderstorm Thunderstorm